Time,TemperatureF,DewpointF,PressureIn,WindDirection,WindDirectionDegrees,WindSpeedMPH,WindSpeedGustMPH,Humidity,HourlyPrecipIn,Conditions,Clouds,dailyrainin,SolarRadiationWatts/m^2,SoftwareType,DateUTC
2013-10-30 00:03:00,55.0,55.0,-100.00,South,188,1.0,2.0,99,0.00,,,0.00,0.000000,,2013-10-30 04:03:00,
2013-10-30 00:44:00,54.0,54.0,-100.00,SW,226,0.0,3.0,100,0.00,,,0.00,0.000000,,2013-10-30 04:44:00,
2013-10-30 00:54:00,54.0,54.0,-100.00,SW,226,0.0,3.0,100,0.00,,,0.00,0.000000,,2013-10-30 04:54:00,
2013-10-30 01:03:00,54.0,54.0,-100.00,SW,226,0.0,3.0,100,0.00,,,0.00,0.000000,,2013-10-30 05:03:00,
2013-10-30 01:43:00,54.0,54.0,-100.00,SW,230,0.0,3.0,100,0.00,,,0.00,0.000000,,2013-10-30 05:43:00,
2013-10-30 01:53:00,54.0,54.0,-100.00,SW,230,0.0,3.0,100,0.00,,,0.00,0.000000,,2013-10-30 05:53:00,
2013-10-30 02:02:00,54.0,54.0,-100.00,SW,230,0.0,3.0,100,0.00,,,0.00,0.000000,,2013-10-30 06:02:00,
2013-10-30 02:42:00,53.0,53.0,-100.00,South,185,1.0,3.0,100,0.00,,,0.00,0.000000,,2013-10-30 06:42:00,
2013-10-30 02:53:00,53.0,53.0,-100.00,South,185,1.0,3.0,100,0.00,,,0.00,0.000000,,2013-10-30 06:53:00,
2013-10-30 03:02:00,53.0,53.0,-100.00,South,185,1.0,3.0,100,0.00,,,0.00,0.000000,,2013-10-30 07:02:00,
2013-10-30 03:42:00,53.0,53.0,-100.00,WSW,245,1.0,2.0,100,0.00,,,0.00,0.000000,,2013-10-30 07:42:00,
2013-10-30 03:52:00,53.0,53.0,-100.00,WSW,245,1.0,2.0,100,0.00,,,0.00,0.000000,,2013-10-30 07:52:00,
2013-10-30 04:03:00,53.0,53.0,-100.00,WSW,245,1.0,2.0,100,0.00,,,0.00,0.000000,,2013-10-30 08:03:00,
2013-10-30 04:42:00,53.0,53.0,-100.00,SSE,167,2.0,4.0,100,0.00,,,0.00,0.000000,,2013-10-30 08:42:00,
2013-10-30 04:52:00,53.0,53.0,-100.00,SSE,167,2.0,4.0,100,0.00,,,0.00,0.000000,,2013-10-30 08:52:00,
2013-10-30 05:02:00,53.0,53.0,-100.00,SSE,167,2.0,4.0,100,0.00,,,0.00,0.000000,,2013-10-30 09:02:00,
2013-10-30 05:43:00,53.0,53.0,-100.00,NW,304,0.0,2.0,100,0.00,,,0.00,0.000000,,2013-10-30 09:43:00,
2013-10-30 05:54:00,53.0,53.0,-100.00,NW,304,0.0,2.0,100,0.00,,,0.00,0.000000,,2013-10-30 09:54:00,
2013-10-30 06:03:00,53.0,53.0,-100.00,NW,304,0.0,2.0,100,0.00,,,0.00,0.000000,,2013-10-30 10:03:00,
2013-10-30 06:43:00,53.0,53.0,-100.00,WNW,303,1.0,2.0,100,0.00,,,0.00,0.000000,,2013-10-30 10:43:00,
2013-10-30 06:53:00,53.0,53.0,-100.00,WNW,303,1.0,2.0,100,0.00,,,0.00,0.000000,,2013-10-30 10:53:00,
2013-10-30 07:02:00,53.0,53.0,-100.00,WNW,303,1.0,2.0,100,0.00,,,0.00,0.000000,,2013-10-30 11:02:00,
2013-10-30 07:42:00,54.0,54.0,-100.00,East,81,1.0,4.0,100,0.00,,,0.00,0.000000,,2013-10-30 11:42:00,
2013-10-30 07:52:00,54.0,54.0,-100.00,East,81,1.0,4.0,100,0.00,,,0.00,0.000000,,2013-10-30 11:52:00,
2013-10-30 08:01:00,54.0,54.0,-100.00,East,81,1.0,4.0,100,0.00,,,0.00,0.000000,,2013-10-30 12:01:00,
2013-10-30 08:42:00,54.0,54.0,-100.00,North,350,1.0,2.0,100,0.00,,,0.00,0.000000,,2013-10-30 12:42:00,
2013-10-30 08:52:00,54.0,54.0,-100.00,North,350,1.0,2.0,100,0.00,,,0.00,0.000000,,2013-10-30 12:52:00,
2013-10-30 09:02:00,54.0,54.0,-100.00,North,350,1.0,2.0,100,0.00,,,0.00,0.000000,,2013-10-30 13:02:00,
2013-10-30 09:42:00,57.0,57.0,-100.00,North,1,2.0,2.0,100,0.00,,,0.00,41.000000,,2013-10-30 13:42:00,
2013-10-30 09:52:00,57.0,57.0,-100.00,North,1,2.0,2.0,100,0.00,,,0.00,41.000000,,2013-10-30 13:52:00,
2013-10-30 10:02:00,57.0,57.0,-100.00,North,1,2.0,2.0,100,0.00,,,0.00,41.000000,,2013-10-30 14:02:00,
2013-10-30 10:42:00,61.0,59.0,-100.00,NE,46,2.0,3.0,94,0.00,,,0.00,117.000000,,2013-10-30 14:42:00,
2013-10-30 10:52:00,61.0,59.0,-100.00,NE,46,2.0,3.0,94,0.00,,,0.00,117.000000,,2013-10-30 14:52:00,
2013-10-30 11:02:00,61.0,59.0,-100.00,NE,46,2.0,3.0,94,0.00,,,0.00,117.000000,,2013-10-30 15:02:00,
2013-10-30 11:43:00,70.0,55.0,-100.00,SW,224,5.0,12.0,60,0.00,,,0.00,412.000000,,2013-10-30 15:43:00,
2013-10-30 11:54:00,70.0,55.0,-100.00,SW,224,5.0,12.0,60,0.00,,,0.00,412.000000,,2013-10-30 15:54:00,
2013-10-30 12:03:00,70.0,55.0,-100.00,SW,224,5.0,12.0,60,0.00,,,0.00,412.000000,,2013-10-30 16:03:00,
2013-10-30 12:43:00,70.0,55.0,-100.00,SW,230,6.0,12.0,58,0.00,,,0.00,515.000000,,2013-10-30 16:43:00,
2013-10-30 12:53:00,70.0,55.0,-100.00,SW,230,6.0,12.0,58,0.00,,,0.00,515.000000,,2013-10-30 16:53:00,
2013-10-30 13:02:00,70.0,55.0,-100.00,SW,230,6.0,12.0,58,0.00,,,0.00,515.000000,,2013-10-30 17:02:00,
2013-10-30 13:42:00,73.0,55.0,-100.00,SSW,206,8.0,15.0,53,0.00,,,0.00,629.000000,,2013-10-30 17:42:00,
2013-10-30 13:52:00,73.0,55.0,-100.00,SSW,206,8.0,15.0,53,0.00,,,0.00,629.000000,,2013-10-30 17:52:00,
2013-10-30 14:02:00,73.0,55.0,-100.00,SSW,206,8.0,15.0,53,0.00,,,0.00,629.000000,,2013-10-30 18:02:00,
2013-10-30 14:42:00,75.0,55.0,-100.00,SSW,195,7.0,16.0,49,0.00,,,0.00,618.000000,,2013-10-30 18:42:00,
2013-10-30 14:52:00,75.0,55.0,-100.00,SSW,195,7.0,16.0,49,0.00,,,0.00,618.000000,,2013-10-30 18:52:00,
2013-10-30 15:02:00,75.0,55.0,-100.00,SSW,195,7.0,16.0,49,0.00,,,0.00,618.000000,,2013-10-30 19:02:00,
2013-10-30 15:42:00,74.0,52.0,-100.00,WSW,258,6.0,13.0,47,0.00,,,-99.99,524.000000,,2013-10-30 19:42:00,
2013-10-30 15:52:00,74.0,52.0,-100.00,WSW,258,6.0,13.0,47,0.00,,,-99.99,524.000000,,2013-10-30 19:52:00,
2013-10-30 16:02:00,74.0,52.0,-100.00,WSW,258,6.0,13.0,47,0.00,,,-99.99,524.000000,,2013-10-30 20:02:00,
2013-10-30 16:42:00,73.0,54.0,-100.00,SSW,210,5.0,15.0,52,0.00,,,0.00,373.000000,,2013-10-30 20:42:00,
2013-10-30 16:52:00,73.0,54.0,-100.00,SSW,210,5.0,15.0,52,0.00,,,0.00,373.000000,,2013-10-30 20:52:00,
2013-10-30 17:01:00,73.0,54.0,-100.00,SSW,210,5.0,15.0,52,0.00,,,0.00,373.000000,,2013-10-30 21:01:00,
2013-10-30 17:43:00,71.0,54.0,-100.00,SSW,201,5.0,13.0,56,0.00,,,0.00,287.000000,,2013-10-30 21:43:00,
2013-10-30 17:53:00,71.0,54.0,-100.00,SSW,201,5.0,13.0,56,0.00,,,0.00,287.000000,,2013-10-30 21:53:00,
2013-10-30 18:04:00,71.0,54.0,-100.00,SSW,201,5.0,13.0,56,0.00,,,0.00,287.000000,,2013-10-30 22:04:00,
2013-10-30 18:43:00,68.0,52.0,-100.00,SSW,210,5.0,10.0,56,0.00,,,0.00,84.000000,,2013-10-30 22:43:00,
2013-10-30 18:54:00,68.0,52.0,-100.00,SSW,210,5.0,10.0,56,0.00,,,0.00,84.000000,,2013-10-30 22:54:00,
2013-10-30 19:03:00,68.0,52.0,-100.00,SSW,210,5.0,10.0,56,0.00,,,0.00,84.000000,,2013-10-30 23:03:00,
2013-10-30 19:42:00,65.0,53.0,-100.00,South,189,2.0,11.0,66,0.00,,,0.00,10.000000,,2013-10-30 23:42:00,
2013-10-30 19:53:00,65.0,53.0,-100.00,South,189,2.0,11.0,66,0.00,,,0.00,10.000000,,2013-10-30 23:53:00,
2013-10-30 20:02:00,65.0,53.0,-100.00,South,189,2.0,11.0,66,0.00,,,0.00,10.000000,,2013-10-31 00:02:00,
2013-10-30 21:53:00,58.0,55.0,-100.00,NW,312,0.0,2.0,90,0.00,,,0.00,0.000000,,2013-10-31 01:53:00,
2013-10-30 22:02:00,58.0,55.0,-100.00,NW,312,0.0,2.0,90,0.00,,,0.00,0.000000,,2013-10-31 02:02:00,
2013-10-30 22:52:00,57.0,55.0,-100.00,South,187,2.0,3.0,92,0.00,,,0.00,0.000000,,2013-10-31 02:52:00,
2013-10-30 23:02:00,57.0,55.0,-100.00,South,187,2.0,3.0,92,0.00,,,0.00,0.000000,,2013-10-31 03:02:00,
2013-10-30 23:44:00,59.0,55.0,-100.00,SSE,147,2.0,4.0,86,0.00,,,0.00,0.000000,,2013-10-31 03:44:00,
2013-10-30 23:55:00,59.0,55.0,-100.00,SSE,147,2.0,4.0,86,0.00,,,0.00,0.000000,,2013-10-31 03:55:00,